Gulfport, MS

2:08 PM CDT on July 25, 2016 (GMT -0500)
Gulfport-Biloxi Regional

Weather History for KGPT - February, 2013

Change the Weather History Date:

Sunday, February 24, 2013

  Actual Average Record
Temperature  
Mean Temperature 57 °F -  
Max Temperature 66 °F 65 °F 78 °F (1982)
Min Temperature 48 °F 45 °F 28 °F (1968)
Degree Days  
Heating Degree Days 8    
Growing Degree Days 7 (Base 50)    
Moisture  
Dew Point 51 °F    
Average Humidity 77    
Maximum Humidity 93    
Minimum Humidity 64    
Precipitation  
Precipitation 0.31 in - - ()
Sea Level Pressure  
Sea Level Pressure 29.90 in    
Wind  
Wind Speed 7 mph (ENE)    
Max Wind Speed 12 mph    
Max Gust Speed -    
Visibility 9 miles    
Events Rain , Thunderstorm    
Averages and records for this station are not official NWS values.
T = Trace of Precipitation, MM = Missing Value Source: NWS Daily Summary

Daily Weather History Graph

Daily Weather History Graph

Search for Another Location

Airport or City:

Trip Planner

Search our weather history database for the weather conditions in past years. The results will help you decide how hot, cold, wet, or windy it might be!

Date:

Astronomy

Feb. 24, 2013 Rise Set
Actual Time 6:27 AM CST 5:51 PM CST
Civil Twilight 6:03 AM CST 6:15 PM CST
Nautical Twilight 5:35 AM CST 6:43 PM CST
Astronomical Twilight 5:07 AM CST 7:11 PM CST
Moon 5:02 PM CST (2/24) 5:23 AM CST (2/24)
Length of Visible Light 12h 12m
Length of Day
11h 24m
Waxing Gibbous, 99% of the Moon is Illuminated
Feb 24
Waxing Gibbous
Feb 25
Full
Mar 4
Last Quarter
Mar 11
New
Mar 19
First Quarter

Hourly Weather History & Observations

Time (CST) Temp. Dew Point Humidity Pressure Visibility Wind Dir Wind Speed Gust Speed Precip Events Conditions
12:32 AM 55.4 °F 46.4 °F 72% 29.95 in - NNE 5.8 mph - N/A   Scattered Clouds
12:53 AM 54.0 °F 46.0 °F 75% 29.95 in - NNE 4.6 mph - N/A   Clear
1:53 AM 52.0 °F 45.0 °F 77% 29.94 in - NNE 5.8 mph - N/A   Clear
2:53 AM 51.1 °F 45.0 °F 80% 29.94 in - NE 3.5 mph - N/A   Clear
3:53 AM 48.9 °F 45.0 °F 86% 29.93 in - North 4.6 mph - N/A   Clear
4:53 AM 48.0 °F 45.0 °F 89% 29.94 in - NNE 3.5 mph - N/A   Clear
5:53 AM 48.0 °F 45.0 °F 89% 29.95 in - NNE 4.6 mph - N/A   Clear
6:53 AM 48.0 °F 45.0 °F 89% 29.96 in - NE 4.6 mph - N/A   Clear
7:53 AM 52.0 °F 46.0 °F 80% 29.96 in 10.0 mi NE 9.2 mph - N/A   Clear
8:53 AM 57.0 °F 48.0 °F 72% 29.97 in - NE 8.1 mph - N/A   Clear
9:53 AM 60.1 °F 50.0 °F 69% 29.98 in 10.0 mi East 8.1 mph - N/A   Clear
10:53 AM 64.0 °F 52.0 °F 65% 29.97 in 10.0 mi East 9.2 mph - N/A   Clear
11:53 AM 63.0 °F 53.1 °F 70% 29.96 in - SE 6.9 mph - N/A   Scattered Clouds
12:53 PM 64.0 °F 55.0 °F 73% 29.94 in 10.0 mi SSE 9.2 mph - N/A   Scattered Clouds
1:53 PM 64.0 °F 54.0 °F 70% 29.92 in 10.0 mi SE 8.1 mph - N/A   Mostly Cloudy
2:53 PM 64.9 °F 55.0 °F 70% 29.89 in 10.0 mi ESE 8.1 mph - N/A   Overcast
3:53 PM 66.0 °F 55.0 °F 68% 29.87 in 8.0 mi East 8.1 mph - N/A   Overcast
4:53 PM 63.0 °F 55.0 °F 75% 29.88 in 10.0 mi ESE 10.4 mph - N/A   Overcast
5:53 PM 63.0 °F 55.0 °F 75% 29.88 in 10.0 mi ESE 10.4 mph - N/A   Overcast
6:49 PM 64.4 °F 51.8 °F 64% 29.87 in 7.0 mi ESE 11.5 mph - N/A Thunderstorm Overcast
6:53 PM 64.0 °F 52.0 °F 65% 29.87 in 7.0 mi ESE 9.2 mph - N/A Thunderstorm Overcast
7:25 PM 60.8 °F 53.6 °F 77% 29.87 in - East 8.1 mph - N/A   Overcast
7:49 PM 60.8 °F 53.6 °F 77% 29.86 in 7.0 mi East 8.1 mph - N/A Rain , Thunderstorm Light Rain
7:53 PM 61.0 °F 54.0 °F 78% 29.86 in 8.0 mi East 9.2 mph - N/A Rain , Thunderstorm Light Rain
8:00 PM 60.8 °F 53.6 °F 77% 29.85 in 8.0 mi ENE 8.1 mph - 0.00 in Rain , Thunderstorm Light Rain
8:53 PM 60.1 °F 55.9 °F 86% 29.82 in 8.0 mi East 11.5 mph - 0.07 in Rain , Thunderstorm Light Rain
9:53 PM 60.1 °F 57.0 °F 90% 29.84 in 7.0 mi East 5.8 mph - 0.08 in Rain Light Rain
10:53 PM 59.0 °F 57.0 °F 93% 29.81 in - East 9.2 mph - 0.11 in Rain , Thunderstorm Heavy Thunderstorms and Rain
11:53 PM 60.1 °F 57.9 °F 93% 29.81 in - North 4.6 mph - 0.05 in Thunderstorm Thunderstorm